Lid_Strength_Index
-0 2 4 6 10 14 16 14 12 11 11 10 8 8 8 8 10 13 2 1 0 0 -0 -0 -1 -1 -2 -2 -1 -2 -2 -2 -2 -2 -2 -2 -2 -2 -2 -2 -2 -2 -2 -2 -2 -2 -2 -2 -1
2 3 5 9 12 16 15 14 12 11 9 6 7 7 8 10 6 4 3 1 0 -0 -0 -0 -1 -1 -1 -1 -1 -2 -2 -2 -2 -2 -2 -2 -2 -2 -2 -1 -2 -2 -2 -2 -2 -1 -1 -1 -1
5 4 7 10 14 15 15 12 11 10 9 9 9 7 7 8 5 4 2 1 0 0 -0 -0 -1 -1 -1 -2 -2 -2 -2 -2 -2 -2 -2 -2 -2 -2 -2 -1 -2 -1 -2 -1 -1 -1 -1 -1 -1
7 6 8 12 15 13 13 10 10 10 10 8 8 9 6 3 4 2 1 1 1 0 0 -0 -1 -1 -1 -2 -2 -2 -2 -2 -2 -2 -2 -2 -2 -2 -2 -2 -2 -1 -1 -1 -1 -1 -1 -1 -1
7 8 11 13 13 12 12 9 9 10 11 10 8 10 9 4 2 1 1 1 1 0 0 0 -1 -1 -1 -1 -1 -2 -2 -2 -2 -2 -2 -2 -2 -2 -2 -2 -2 -1 -1 -1 -1 -1 -1 -1 -1
9 9 13 15 13 13 11 9 9 10 10 8 8 9 8 4 2 2 1 2 1 0 0 0 1 0 -1 -1 -1 -1 -2 -2 -2 -2 -2 -2 -2 -2 -2 -2 -2 -2 -2 -1 -1 -1 -1 -1 -0
10 11 13 13 13 13 11 9 10 9 9 9 6 9 8 5 2 2 2 2 1 0 0 1 1 1 1 -0 -0 -1 -1 -2 -2 -2 -2 -2 -2 -2 -3 -2 -2 -2 -2 -2 -2 -1 -1 -1 -0
9 10 12 13 13 13 11 10 9 10 10 6 5 9 10 5 2 3 2 2 2 1 0 0 1 1 1 1 1 0 -0 -1 -1 -1 -1 -0 -1 -1 -1 -1 -2 -2 -2 -2 -2 -2 -1 -1 -1
8 12 13 12 12 12 11 10 8 7 7 6 6 6 5 3 3 3 3 3 2 1 1 0 0 1 1 1 1 1 1 1 0 0 1 1 0 0 0 0 -1 -2 -2 -2 -2 -2 -2 -1 -1
11 13 12 10 10 10 11 10 8 8 8 8 7 5 3 3 3 4 4 4 3 3 3 1 0 0 0 -0 1 1 0 1 1 1 1 1 1 1 0 1 0 -1 -1 -1 -2 -2 -1 1 2
11 13 11 10 9 8 10 10 9 8 10 7 7 6 4 4 4 4 3 3 3 2 2 2 1 0 0 0 1 1 1 1 2 2 2 1 1 1 1 1 1 1 2 2 2 2 2 2 3
13 11 11 8 9 9 10 9 10 9 9 7 5 4 4 5 4 4 4 3 3 3 2 1 2 1 1 0 0 0 1 1 2 2 2 2 2 2 2 2 2 2 2 3 3 3 3 3 2
12 11 10 9 9 9 8 10 10 10 8 6 4 4 5 4 4 4 3 3 3 3 2 2 2 2 1 2 2 1 1 1 0 1 1 1 2 2 2 2 3 3 3 3 3 4 3 3 3
9 9 10 9 10 9 10 10 10 10 7 6 5 5 5 4 4 4 4 4 3 3 3 2 2 2 2 2 2 2 2 2 2 2 1 2 2 2 3 3 3 3 3 3 3 3 3 3 3
8 10 10 10 10 10 10 13 11 9 8 7 6 6 5 4 4 4 3 3 3 3 2 3 2 2 2 2 2 2 2 2 2 2 2 2 2 3 3 3 3 2 3 3 3 3 3 3 3
10 11 13 11 9 10 12 15 13 11 10 7 7 6 6 5 4 3 3 3 3 2 2 2 1 2 2 1 2 2 2 2 2 2 2 2 2 2 3 3 2 2 3 3 3 3 3 4 4
12 15 14 12 9 10 12 14 12 9 10 10 9 8 8 7 6 4 3 3 2 2 2 2 2 2 1 1 1 2 2 2 2 2 2 2 2 2 2 2 2 3 3 3 3 3 4 4 2
15 15 14 14 12 10 12 12 11 10 10 10 10 10 11 10 9 8 6 4 4 4 3 3 2 1 1 1 2 2 3 2 2 2 2 2 2 2 2 2 2 3 3 3 2 2 2 2 2
12 14 15 14 11 12 12 12 11 10 11 11 11 10 9 10 9 8 8 10 10 7 4 4 3 2 2 3 3 3 3 3 2 2 2 2 1 1 2 2 3 2 1 1 1 2 2 2 2
13 15 15 13 11 13 14 14 12 12 12 11 11 11 10 10 10 9 10 10 9 10 10 8 5 3 2 2 3 3 3 3 3 3 2 2 2 2 2 2 2 2 1 1 1 2 3 3 2
14 15 16 15 13 13 15 17 15 14 12 12 11 12 11 10 10 10 10 10 10 10 9 8 8 7 5 2 3 4 4 4 4 3 3 2 2 2 2 2 2 2 2 1 1 2 3 3 2
15 12 13 14 16 18 16 21 17 16 15 14 14 13 13 12 12 11 11 11 11 10 9 9 8 8 7 6 3 4 3 4 4 3 3 2 2 2 2 2 3 2 2 2 2 2 2 2 3
14 12 13 14 17 18 19 20 18 17 16 15 15 14 14 13 13 12 11 10 10 9 10 9 8 7 6 7 6 5 4 3 4 3 3 3 3 3 3 3 3 2 2 2 1 2 2 2 2
11 13 14 15 18 23 19 20 21 19 16 16 14 14 13 12 12 12 11 10 10 11 11 10 9 9 9 8 7 7 6 4 4 3 3 4 4 6 5 4 4 4 3 2 2 1 1 1 1
12 15 20 21 22 23 20 21 20 17 16 15 14 14 13 12 12 12 11 11 11 11 11 11 10 10 10 9 9 8 6 5 4 4 4 5 7 8 9 8 8 8 7 5 6 6 6 5 5
13 14 19 23 25 23 19 22 19 16 14 14 12 12 13 13 12 12 11 11 11 11 11 11 11 11 11 10 10 10 9 8 7 7 6 6 8 9 9 8 8 8 8 8 7 7 6 6 6
13 16 13 18 23 23 21 19 16 15 14 14 13 13 12 12 11 11 11 10 11 11 12 12 12 11 11 11 10 10 10 9 9 9 8 9 9 9 9 9 8 8 7 7 7 7 8 8 8
12 11 15 17 25 25 22 21 20 16 14 14 13 13 12 11 11 10 11 11 11 12 12 12 12 12 11 11 11 11 11 10 10 10 10 10 9 9 9 9 8 8 8 8 8 9 9 9 9
13 13 13 14 17 21 24 21 17 16 14 13 13 12 11 10 10 10 10 10 10 11 11 12 12 11 11 11 11 11 11 11 10 10 10 9 9 9 9 9 9 9 9 9 10 10 10 10 10
10 12 12 16 19 17 17 19 14 14 13 12 11 11 11 11 10 10 9 9 10 10 11 11 11 11 10 10 10 10 10 10 10 10 10 10 10 10 9 9 9 10 10 11 11 11 11 11 11